Year,Month,Day,Hour,Minute,Value (Times are PST for windspeed in km/hr)
2020,01,14,00,00,8.00
2020,01,14,00,01,8.90
2020,01,14,00,02,10.10
2020,01,14,00,03,7.10
2020,01,14,00,04,7.70
2020,01,14,00,05,9.00
2020,01,14,00,06,9.10
2020,01,14,00,07,10.60
2020,01,14,00,08,9.80
2020,01,14,00,09,8.20
2020,01,14,00,10,9.70
2020,01,14,00,11,6.70
2020,01,14,00,12,12.10
2020,01,14,00,13,8.40
2020,01,14,00,14,10.60
2020,01,14,00,15,7.00
2020,01,14,00,16,4.00
2020,01,14,00,17,5.50
2020,01,14,00,18,7.10
2020,01,14,00,19,5.10
2020,01,14,00,20,5.30
2020,01,14,00,21,10.30
2020,01,14,00,22,9.00
2020,01,14,00,23,8.30
2020,01,14,00,24,8.10
2020,01,14,00,25,7.00
2020,01,14,00,26,8.70
2020,01,14,00,27,8.20
2020,01,14,00,28,8.30
2020,01,14,00,29,9.80
2020,01,14,00,30,7.80
2020,01,14,00,31,7.30
2020,01,14,00,32,13.00
2020,01,14,00,33,14.70
2020,01,14,00,34,11.80
2020,01,14,00,35,11.80
2020,01,14,00,36,8.80
2020,01,14,00,37,6.40
2020,01,14,00,38,7.80
2020,01,14,00,39,10.40
2020,01,14,00,40,11.70
2020,01,14,00,41,11.20
2020,01,14,00,42,16.00
2020,01,14,00,43,8.20
2020,01,14,00,44,10.30
2020,01,14,00,45,8.60
2020,01,14,00,46,9.50
2020,01,14,00,47,13.20
2020,01,14,00,48,9.50
2020,01,14,00,49,10.40
2020,01,14,00,50,10.70
2020,01,14,00,51,8.50
2020,01,14,00,52,8.90
2020,01,14,00,53,13.00
2020,01,14,00,54,9.00
2020,01,14,00,55,7.80
2020,01,14,00,56,8.40
2020,01,14,00,57,12.50
2020,01,14,00,58,10.50
2020,01,14,00,59,9.00
2020,01,14,01,00,13.50
2020,01,14,01,01,8.50
2020,01,14,01,02,8.60
2020,01,14,01,03,9.40
2020,01,14,01,04,11.30
2020,01,14,01,05,8.20
2020,01,14,01,06,5.60
2020,01,14,01,07,8.10
2020,01,14,01,08,12.00
2020,01,14,01,09,12.80
2020,01,14,01,10,12.40
2020,01,14,01,11,10.70
2020,01,14,01,12,7.30
2020,01,14,01,13,9.80
2020,01,14,01,14,8.60
2020,01,14,01,15,9.80
2020,01,14,01,16,8.80
2020,01,14,01,17,9.10
2020,01,14,01,18,7.00
2020,01,14,01,19,12.50
2020,01,14,01,20,7.70
2020,01,14,01,21,11.30
2020,01,14,01,22,10.60
2020,01,14,01,23,8.20
2020,01,14,01,24,8.50
2020,01,14,01,25,7.00
2020,01,14,01,26,7.50
2020,01,14,01,27,9.10
2020,01,14,01,28,11.70
2020,01,14,01,29,7.90
2020,01,14,01,30,9.90
2020,01,14,01,31,6.80
2020,01,14,01,32,6.10
2020,01,14,01,33,8.30
2020,01,14,01,34,11.70
2020,01,14,01,35,12.90
2020,01,14,01,36,11.00
2020,01,14,01,37,10.40
2020,01,14,01,38,9.70
2020,01,14,01,39,9.00
2020,01,14,01,40,10.90
2020,01,14,01,41,7.00
2020,01,14,01,42,7.10
2020,01,14,01,43,7.90
2020,01,14,01,44,8.30
2020,01,14,01,45,13.70
2020,01,14,01,46,9.50
2020,01,14,01,47,5.40
2020,01,14,01,48,7.70
2020,01,14,01,49,10.00
2020,01,14,01,50,7.40
2020,01,14,01,51,13.70
2020,01,14,01,52,10.80
2020,01,14,01,53,8.80
2020,01,14,01,54,13.00
2020,01,14,01,55,8.60
2020,01,14,01,56,6.40
2020,01,14,01,57,7.60
2020,01,14,01,58,5.30
2020,01,14,01,59,7.40
2020,01,14,02,00,6.40
2020,01,14,02,01,6.40
2020,01,14,02,02,7.00
2020,01,14,02,03,7.50
2020,01,14,02,04,7.10
2020,01,14,02,05,7.10
2020,01,14,02,06,9.80
2020,01,14,02,07,7.20
2020,01,14,02,08,8.10
2020,01,14,02,09,8.30
2020,01,14,02,10,7.40
2020,01,14,02,11,10.40
2020,01,14,02,12,10.90
2020,01,14,02,13,6.60
2020,01,14,02,14,6.40
2020,01,14,02,15,6.20
2020,01,14,02,16,6.70
2020,01,14,02,17,10.10
2020,01,14,02,18,16.00
2020,01,14,02,19,11.80
2020,01,14,02,20,11.00
2020,01,14,02,21,7.60
2020,01,14,02,22,7.40
2020,01,14,02,23,12.90
2020,01,14,02,24,9.70
2020,01,14,02,25,7.40
2020,01,14,02,26,7.10
2020,01,14,02,27,9.50
2020,01,14,02,28,5.60
2020,01,14,02,29,6.00
2020,01,14,02,30,11.20
2020,01,14,02,31,14.50
2020,01,14,02,32,13.30
2020,01,14,02,33,8.70
2020,01,14,02,34,9.70
2020,01,14,02,35,9.90
2020,01,14,02,36,11.60
2020,01,14,02,37,12.60
2020,01,14,02,38,11.00
2020,01,14,02,39,12.40
2020,01,14,02,40,12.70
2020,01,14,02,41,9.20
2020,01,14,02,42,11.60
2020,01,14,02,43,9.90
2020,01,14,02,44,5.50
2020,01,14,02,45,8.60
2020,01,14,02,46,10.60
2020,01,14,02,47,8.20
2020,01,14,02,48,10.60
2020,01,14,02,49,11.80
2020,01,14,02,50,5.80
2020,01,14,02,51,8.30
2020,01,14,02,52,9.20
2020,01,14,02,53,8.20
2020,01,14,02,54,9.90
2020,01,14,02,55,7.00
2020,01,14,02,56,12.50
2020,01,14,02,57,11.20
2020,01,14,02,58,10.50
2020,01,14,02,59,10.20
2020,01,14,03,00,13.30
2020,01,14,03,01,12.30
2020,01,14,03,02,9.80
2020,01,14,03,03,9.90
2020,01,14,03,04,11.70
2020,01,14,03,05,8.90
2020,01,14,03,06,9.70
2020,01,14,03,07,8.10
2020,01,14,03,08,4.00
2020,01,14,03,09,6.10
2020,01,14,03,10,5.30
2020,01,14,03,11,7.30
2020,01,14,03,12,7.40
2020,01,14,03,13,12.10
2020,01,14,03,14,9.10
2020,01,14,03,15,11.20
2020,01,14,03,16,10.00
2020,01,14,03,17,11.00
2020,01,14,03,18,11.70
2020,01,14,03,19,12.10
2020,01,14,03,20,8.80
2020,01,14,03,21,12.00
2020,01,14,03,22,9.90
2020,01,14,03,23,11.00
2020,01,14,03,24,5.50
2020,01,14,03,25,7.20
2020,01,14,03,26,9.70
2020,01,14,03,27,10.20
2020,01,14,03,28,8.60
2020,01,14,03,29,9.80
2020,01,14,03,30,13.00
2020,01,14,03,31,9.40
2020,01,14,03,32,9.50
2020,01,14,03,33,10.60
2020,01,14,03,34,9.30
2020,01,14,03,35,9.10
2020,01,14,03,36,13.50
2020,01,14,03,37,10.20
2020,01,14,03,38,14.80
2020,01,14,03,39,11.70
2020,01,14,03,40,12.60
2020,01,14,03,41,10.80
2020,01,14,03,42,8.80
2020,01,14,03,43,12.90
2020,01,14,03,44,8.50
2020,01,14,03,45,12.60
2020,01,14,03,46,12.00
2020,01,14,03,47,11.50
2020,01,14,03,48,7.90
2020,01,14,03,49,4.80
2020,01,14,03,50,9.40
2020,01,14,03,51,11.10
2020,01,14,03,52,9.40
2020,01,14,03,53,8.60
2020,01,14,03,54,7.70
2020,01,14,03,55,10.80
2020,01,14,03,56,10.70
2020,01,14,03,57,7.90
2020,01,14,03,58,6.20
2020,01,14,03,59,8.90
2020,01,14,04,00,13.60
2020,01,14,04,01,11.50
2020,01,14,04,02,11.80
2020,01,14,04,03,11.60
2020,01,14,04,04,9.50
2020,01,14,04,05,9.00
2020,01,14,04,06,12.70
2020,01,14,04,07,9.60
2020,01,14,04,08,10.60
2020,01,14,04,09,11.80
2020,01,14,04,10,8.40
2020,01,14,04,11,10.70
2020,01,14,04,12,11.40
2020,01,14,04,13,8.90
2020,01,14,04,14,10.70
2020,01,14,04,15,10.40
2020,01,14,04,16,13.90
2020,01,14,04,17,14.20
2020,01,14,04,18,13.90
2020,01,14,04,19,9.70
2020,01,14,04,20,10.50
2020,01,14,04,21,9.30
2020,01,14,04,22,6.80
2020,01,14,04,23,7.60
2020,01,14,04,24,9.80
2020,01,14,04,25,11.60
2020,01,14,04,26,9.80
2020,01,14,04,27,9.00
2020,01,14,04,28,9.60
2020,01,14,04,29,7.60
2020,01,14,04,30,10.90
2020,01,14,04,31,6.40
2020,01,14,04,32,7.20
2020,01,14,04,33,10.00
2020,01,14,04,34,10.50
2020,01,14,04,35,7.90
2020,01,14,04,36,11.20
2020,01,14,04,37,13.80
2020,01,14,04,38,11.60
2020,01,14,04,39,9.40
2020,01,14,04,40,10.90
2020,01,14,04,41,7.50
2020,01,14,04,42,9.70
2020,01,14,04,43,8.20
2020,01,14,04,44,10.50
2020,01,14,04,45,11.00
2020,01,14,04,46,8.40
2020,01,14,04,47,6.80
2020,01,14,04,48,9.00
2020,01,14,04,49,9.80
2020,01,14,04,50,10.90
2020,01,14,04,51,9.30
2020,01,14,04,52,9.60
2020,01,14,04,53,12.90
2020,01,14,04,54,10.80
2020,01,14,04,55,10.70
2020,01,14,04,56,12.10
2020,01,14,04,57,11.60
2020,01,14,04,58,12.60
2020,01,14,04,59,13.30
2020,01,14,05,00,13.30
2020,01,14,05,01,12.20
2020,01,14,05,02,10.20
2020,01,14,05,03,8.60
2020,01,14,05,04,8.70
2020,01,14,05,05,10.50
2020,01,14,05,06,7.40
2020,01,14,05,07,8.20
2020,01,14,05,08,10.80
2020,01,14,05,09,12.90
2020,01,14,05,10,15.00
2020,01,14,05,11,9.80
2020,01,14,05,12,7.90
2020,01,14,05,13,9.30
2020,01,14,05,14,4.50
2020,01,14,05,15,9.80
2020,01,14,05,16,8.40
2020,01,14,05,17,10.20
2020,01,14,05,18,12.30
2020,01,14,05,19,6.10
2020,01,14,05,20,6.90
2020,01,14,05,21,7.40
2020,01,14,05,22,8.90
2020,01,14,05,23,7.00
2020,01,14,05,24,5.60
2020,01,14,05,25,6.30
2020,01,14,05,26,5.50
2020,01,14,05,27,7.20
2020,01,14,05,28,7.80
2020,01,14,05,29,5.70
2020,01,14,05,30,6.80
2020,01,14,05,31,7.80
2020,01,14,05,32,10.50
2020,01,14,05,33,8.60
2020,01,14,05,34,8.60
2020,01,14,05,35,9.30
2020,01,14,05,36,8.70
2020,01,14,05,37,11.40
2020,01,14,05,38,14.10
2020,01,14,05,39,11.80
2020,01,14,05,40,11.20
2020,01,14,05,41,11.70
2020,01,14,05,42,10.00
2020,01,14,05,43,10.60
2020,01,14,05,44,8.20
2020,01,14,05,45,10.00
2020,01,14,05,46,6.00
2020,01,14,05,47,7.30
2020,01,14,05,48,6.30
2020,01,14,05,49,12.50
2020,01,14,05,50,6.70
2020,01,14,05,51,4.20
2020,01,14,05,52,5.30
2020,01,14,05,53,7.90
2020,01,14,05,54,7.70
2020,01,14,05,55,8.20
2020,01,14,05,56,8.60
2020,01,14,05,57,9.80
2020,01,14,05,58,7.80
2020,01,14,05,59,6.60
2020,01,14,06,00,8.50
2020,01,14,06,01,12.00
2020,01,14,06,02,10.60
2020,01,14,06,03,8.00
2020,01,14,06,04,9.90
2020,01,14,06,05,9.40
2020,01,14,06,06,8.80
2020,01,14,06,07,9.20
2020,01,14,06,08,9.00
2020,01,14,06,09,9.80
2020,01,14,06,10,6.70
2020,01,14,06,11,10.70
2020,01,14,06,12,8.40
2020,01,14,06,13,5.70
2020,01,14,06,14,5.90
2020,01,14,06,15,6.20
2020,01,14,06,16,6.70
2020,01,14,06,17,6.80
2020,01,14,06,18,4.80
2020,01,14,06,19,5.70
2020,01,14,06,20,7.70
2020,01,14,06,21,4.80
2020,01,14,06,22,4.90
2020,01,14,06,23,6.30
2020,01,14,06,24,7.20
2020,01,14,06,25,7.10
2020,01,14,06,26,8.70
2020,01,14,06,27,10.10
2020,01,14,06,28,8.30
2020,01,14,06,29,9.80
2020,01,14,06,30,8.90
2020,01,14,06,31,9.50
2020,01,14,06,32,9.50
2020,01,14,06,33,12.90
2020,01,14,06,34,8.60
2020,01,14,06,35,8.60
2020,01,14,06,36,9.30
2020,01,14,06,37,7.40
2020,01,14,06,38,7.80
2020,01,14,06,39,6.30
2020,01,14,06,40,10.70
2020,01,14,06,41,13.70
2020,01,14,06,42,8.80
2020,01,14,06,43,11.60
2020,01,14,06,44,9.40
2020,01,14,06,45,10.00
2020,01,14,06,46,10.60
2020,01,14,06,47,11.80
2020,01,14,06,48,12.80
2020,01,14,06,49,12.10
2020,01,14,06,50,5.60
2020,01,14,06,51,8.20
2020,01,14,06,52,12.90
2020,01,14,06,53,9.80
2020,01,14,06,54,6.00
2020,01,14,06,55,6.30
2020,01,14,06,56,9.00
2020,01,14,06,57,6.10
2020,01,14,06,58,8.30
2020,01,14,06,59,7.60
2020,01,14,07,00,8.50
2020,01,14,07,01,6.50
2020,01,14,07,02,4.30
2020,01,14,07,03,7.40
2020,01,14,07,04,5.90
2020,01,14,07,05,4.80
2020,01,14,07,06,4.10
2020,01,14,07,07,8.60
2020,01,14,07,08,9.50
2020,01,14,07,09,8.80
2020,01,14,07,10,5.70
2020,01,14,07,11,5.60
2020,01,14,07,12,10.20
2020,01,14,07,13,6.60
2020,01,14,07,14,6.70
2020,01,14,07,15,8.60
2020,01,14,07,16,8.50
2020,01,14,07,17,8.60
2020,01,14,07,18,4.20
2020,01,14,07,19,9.70
2020,01,14,07,20,7.80
2020,01,14,07,21,6.10
2020,01,14,07,22,2.90
2020,01,14,07,23,1.50
2020,01,14,07,24,5.20
2020,01,14,07,25,5.00
2020,01,14,07,26,4.40
2020,01,14,07,27,5.20
2020,01,14,07,28,7.70
2020,01,14,07,29,5.60
2020,01,14,07,30,11.70
2020,01,14,07,31,5.80
2020,01,14,07,32,7.10
2020,01,14,07,33,4.60
2020,01,14,07,34,3.70
2020,01,14,07,35,3.30
2020,01,14,07,36,8.70
2020,01,14,07,37,7.50
2020,01,14,07,38,7.00
2020,01,14,07,39,8.10
2020,01,14,07,40,9.90
2020,01,14,07,41,11.70
2020,01,14,07,42,5.30
2020,01,14,07,43,9.00
2020,01,14,07,44,6.70
2020,01,14,07,45,13.20
2020,01,14,07,46,9.00
2020,01,14,07,47,10.80
2020,01,14,07,48,5.10
2020,01,14,07,49,4.80
2020,01,14,07,50,4.60
2020,01,14,07,51,2.60
2020,01,14,07,52,6.30
2020,01,14,07,53,8.60
2020,01,14,07,54,7.50
2020,01,14,07,55,8.10
2020,01,14,07,56,7.80
2020,01,14,07,57,10.10
2020,01,14,07,58,10.40
2020,01,14,07,59,8.90
2020,01,14,08,00,6.70
2020,01,14,08,01,7.80
2020,01,14,08,02,10.60
2020,01,14,08,03,7.70
2020,01,14,08,04,9.70
2020,01,14,08,05,9.70
2020,01,14,08,06,8.10
2020,01,14,08,07,7.20
2020,01,14,08,08,8.40
2020,01,14,08,09,4.40
2020,01,14,08,10,6.30
2020,01,14,08,11,9.20
2020,01,14,08,12,8.30
2020,01,14,08,13,6.40
2020,01,14,08,14,7.50
2020,01,14,08,15,6.10
2020,01,14,08,16,7.90
2020,01,14,08,17,5.90
2020,01,14,08,18,6.10
2020,01,14,08,19,8.40
2020,01,14,08,20,7.10
2020,01,14,08,21,5.30
2020,01,14,08,22,5.30
2020,01,14,08,23,10.30
2020,01,14,08,24,8.20
2020,01,14,08,25,6.50
2020,01,14,08,26,8.50
2020,01,14,08,27,9.70
2020,01,14,08,28,7.20
2020,01,14,08,29,8.40
2020,01,14,08,30,7.80
2020,01,14,08,31,6.30
2020,01,14,08,32,7.80
2020,01,14,08,33,7.90
2020,01,14,08,34,11.30
2020,01,14,08,35,7.90
2020,01,14,08,36,9.80
2020,01,14,08,37,7.30
2020,01,14,08,38,6.60
2020,01,14,08,39,5.30
2020,01,14,08,40,5.50
2020,01,14,08,41,6.70
2020,01,14,08,42,6.70
2020,01,14,08,43,4.80
2020,01,14,08,44,5.30
2020,01,14,08,45,6.70
2020,01,14,08,46,7.80
2020,01,14,08,47,10.60
2020,01,14,08,48,7.50
2020,01,14,08,49,7.30
2020,01,14,08,50,5.20
2020,01,14,08,51,9.10
2020,01,14,08,52,12.40
2020,01,14,08,53,9.80
2020,01,14,08,54,8.60
2020,01,14,08,55,9.60
2020,01,14,08,56,8.80
2020,01,14,08,57,8.20
2020,01,14,08,58,6.70
2020,01,14,08,59,9.70
2020,01,14,09,00,8.90
2020,01,14,09,01,8.50
2020,01,14,09,02,6.30
2020,01,14,09,03,4.40
2020,01,14,09,04,6.80
2020,01,14,09,05,7.70
2020,01,14,09,06,8.30
2020,01,14,09,07,6.60
2020,01,14,09,08,6.80
2020,01,14,09,09,6.20
2020,01,14,09,10,6.60
2020,01,14,09,11,7.10
2020,01,14,09,12,10.90
2020,01,14,09,13,9.80
2020,01,14,09,14,6.60
2020,01,14,09,15,8.20
2020,01,14,09,16,10.90
2020,01,14,09,17,6.80
2020,01,14,09,18,8.30
2020,01,14,09,19,5.60
2020,01,14,09,20,4.80
2020,01,14,09,21,9.70
2020,01,14,09,22,6.90
2020,01,14,09,23,6.40
2020,01,14,09,24,10.00
2020,01,14,09,25,8.60
2020,01,14,09,26,9.80
2020,01,14,09,27,7.20
2020,01,14,09,28,6.30
2020,01,14,09,29,8.00
2020,01,14,09,30,6.60
2020,01,14,09,31,10.30
2020,01,14,09,32,6.00
2020,01,14,09,33,6.60
2020,01,14,09,34,7.60
2020,01,14,09,35,8.50
2020,01,14,09,36,6.90
2020,01,14,09,37,7.30
2020,01,14,09,38,7.60
2020,01,14,09,39,9.50
2020,01,14,09,40,9.90
2020,01,14,09,41,9.80
2020,01,14,09,42,8.90
2020,01,14,09,43,7.80
2020,01,14,09,44,6.60
2020,01,14,09,45,7.00
2020,01,14,09,46,7.00
2020,01,14,09,47,11.70
2020,01,14,09,48,12.20
2020,01,14,09,49,11.30
2020,01,14,09,50,10.80
2020,01,14,09,51,6.70
2020,01,14,09,52,6.60
2020,01,14,09,53,11.00
2020,01,14,09,54,9.80
2020,01,14,09,55,6.30
2020,01,14,09,56,9.90
2020,01,14,09,57,6.60
2020,01,14,09,58,8.30
2020,01,14,09,59,6.40
2020,01,14,10,00,6.30
2020,01,14,10,01,4.60
2020,01,14,10,02,10.00
2020,01,14,10,03,7.90
2020,01,14,10,04,7.10
2020,01,14,10,05,7.60
2020,01,14,10,06,4.90
2020,01,14,10,07,9.40
2020,01,14,10,08,6.70
2020,01,14,10,09,8.20
2020,01,14,10,10,7.50
2020,01,14,10,11,9.90
2020,01,14,10,12,12.00
2020,01,14,10,13,9.40
2020,01,14,10,14,9.80
2020,01,14,10,15,8.30
2020,01,14,10,16,5.90
2020,01,14,10,17,3.40
2020,01,14,10,18,3.10
2020,01,14,10,19,4.50
2020,01,14,10,20,3.60
2020,01,14,10,21,5.50
2020,01,14,10,22,6.20
2020,01,14,10,23,4.80
2020,01,14,10,24,3.70
2020,01,14,10,25,8.20
2020,01,14,10,26,8.20
2020,01,14,10,27,4.30
2020,01,14,10,28,5.90
2020,01,14,10,29,3.80
2020,01,14,10,30,1.40
2020,01,14,10,31,2.50
2020,01,14,10,32,2.70
2020,01,14,10,33,6.60
2020,01,14,10,34,9.10
2020,01,14,10,35,9.20
2020,01,14,10,36,7.80
2020,01,14,10,37,7.00
2020,01,14,10,38,11.80
2020,01,14,10,39,10.20
2020,01,14,10,40,9.40
2020,01,14,10,41,6.60
2020,01,14,10,42,3.50
2020,01,14,10,43,3.40
2020,01,14,10,44,5.40
2020,01,14,10,45,9.40
2020,01,14,10,46,7.90
2020,01,14,10,47,5.60
2020,01,14,10,48,3.60
2020,01,14,10,49,5.00
2020,01,14,10,50,4.70
2020,01,14,10,51,5.20
2020,01,14,10,52,6.00
2020,01,14,10,53,7.10
2020,01,14,10,54,5.00
2020,01,14,10,55,5.90
2020,01,14,10,56,6.00
2020,01,14,10,57,5.30
2020,01,14,10,58,7.10
2020,01,14,10,59,5.10
2020,01,14,11,00,4.50
2020,01,14,11,01,4.20
2020,01,14,11,02,5.50
2020,01,14,11,03,5.80
2020,01,14,11,04,6.80
2020,01,14,11,05,5.10
2020,01,14,11,06,5.00
2020,01,14,11,07,6.80
2020,01,14,11,08,6.70
2020,01,14,11,09,7.30
2020,01,14,11,10,6.40
2020,01,14,11,11,6.70
2020,01,14,11,12,6.20
2020,01,14,11,13,6.80
2020,01,14,11,14,7.20
2020,01,14,11,15,5.20
2020,01,14,11,16,8.90
2020,01,14,11,17,6.20
2020,01,14,11,18,7.10
2020,01,14,11,19,5.30
2020,01,14,11,20,4.20
2020,01,14,11,21,6.40
2020,01,14,11,22,4.20
2020,01,14,11,23,6.00
2020,01,14,11,24,5.30
2020,01,14,11,25,7.80
2020,01,14,11,26,6.70
2020,01,14,11,27,6.00
2020,01,14,11,28,7.30
2020,01,14,11,29,4.80
2020,01,14,11,30,6.60
2020,01,14,11,31,6.30
2020,01,14,11,32,6.60
2020,01,14,11,33,5.60
2020,01,14,11,34,5.00
2020,01,14,11,35,4.90
2020,01,14,11,36,4.70
2020,01,14,11,37,4.90
2020,01,14,11,38,5.20
2020,01,14,11,39,6.20
2020,01,14,11,40,7.60
2020,01,14,11,41,6.80
2020,01,14,11,42,5.10
2020,01,14,11,43,7.90
2020,01,14,11,44,6.90
2020,01,14,11,45,3.70
2020,01,14,11,46,3.40
2020,01,14,11,47,3.70
2020,01,14,11,48,3.20
2020,01,14,11,49,3.70
2020,01,14,11,50,2.90
2020,01,14,11,51,4.90
2020,01,14,11,52,7.20
2020,01,14,11,53,4.90
2020,01,14,11,54,4.00
2020,01,14,11,55,4.50
2020,01,14,11,56,4.90
2020,01,14,11,57,3.30
2020,01,14,11,58,2.80
2020,01,14,11,59,3.60
2020,01,14,12,00,3.50
2020,01,14,12,01,4.50
2020,01,14,12,02,8.10
2020,01,14,12,03,6.30
2020,01,14,12,04,4.00
2020,01,14,12,05,5.30
2020,01,14,12,06,4.40
2020,01,14,12,07,5.20
2020,01,14,12,08,6.70
2020,01,14,12,09,4.20
2020,01,14,12,10,2.50
2020,01,14,12,11,3.70
2020,01,14,12,12,5.20
2020,01,14,12,13,6.20
2020,01,14,12,14,7.00
2020,01,14,12,15,8.30
2020,01,14,12,16,8.60
2020,01,14,12,17,6.30
2020,01,14,12,18,5.20
2020,01,14,12,19,5.60
2020,01,14,12,20,4.80
2020,01,14,12,21,2.60
2020,01,14,12,22,2.30
2020,01,14,12,23,4.50
2020,01,14,12,24,4.30
2020,01,14,12,25,4.60
2020,01,14,12,26,4.10
2020,01,14,12,27,5.10
2020,01,14,12,28,6.60
2020,01,14,12,29,5.20
2020,01,14,12,30,5.20
2020,01,14,12,31,2.40
2020,01,14,12,32,1.20
2020,01,14,12,33,3.30
2020,01,14,12,34,2.80
2020,01,14,12,35,4.50
2020,01,14,12,36,2.80
2020,01,14,12,37,4.00
2020,01,14,12,38,4.40
2020,01,14,12,39,6.80
2020,01,14,12,40,5.80
2020,01,14,12,41,4.90
2020,01,14,12,42,4.80
2020,01,14,12,43,4.80
2020,01,14,12,44,4.80
2020,01,14,12,45,3.90
2020,01,14,12,46,3.90
2020,01,14,12,47,2.60
2020,01,14,12,48,3.30
2020,01,14,12,49,2.90
2020,01,14,12,50,1.40
2020,01,14,12,51,1.70
2020,01,14,12,52,2.20
2020,01,14,12,53,2.90
2020,01,14,12,54,6.80
2020,01,14,12,55,4.90
2020,01,14,12,56,3.00
2020,01,14,12,57,3.30
2020,01,14,12,58,4.40
2020,01,14,12,59,4.50
2020,01,14,13,00,2.10
2020,01,14,13,01,1.70
2020,01,14,13,02,2.60
2020,01,14,13,03,3.80
2020,01,14,13,04,4.00
2020,01,14,13,05,4.50
2020,01,14,13,06,4.20
2020,01,14,13,07,3.40
2020,01,14,13,08,2.10
2020,01,14,13,09,3.20
2020,01,14,13,10,2.90
2020,01,14,13,11,3.60
2020,01,14,13,12,1.70
2020,01,14,13,13,5.30
2020,01,14,13,14,4.90
2020,01,14,13,15,5.30
2020,01,14,13,16,5.20
2020,01,14,13,17,4.30
2020,01,14,13,18,5.90
2020,01,14,13,19,4.40
2020,01,14,13,20,4.10
2020,01,14,13,21,4.10
2020,01,14,13,22,6.00
2020,01,14,13,23,6.80
2020,01,14,13,24,5.50
2020,01,14,13,25,4.30
2020,01,14,13,26,1.80
2020,01,14,13,27,5.50
2020,01,14,13,28,5.60
2020,01,14,13,29,6.90
2020,01,14,13,30,5.30
2020,01,14,13,31,6.70
2020,01,14,13,32,7.50
2020,01,14,13,33,7.20
2020,01,14,13,34,7.50
2020,01,14,13,35,5.90
2020,01,14,13,36,5.90
2020,01,14,13,37,7.10
2020,01,14,13,38,5.50
2020,01,14,13,39,4.40
2020,01,14,13,40,4.40
2020,01,14,13,41,5.30
2020,01,14,13,42,6.80
2020,01,14,13,43,4.20
2020,01,14,13,44,6.70
2020,01,14,13,45,7.90
2020,01,14,13,46,5.30
2020,01,14,13,47,5.10
2020,01,14,13,48,4.60
2020,01,14,13,49,7.20
2020,01,14,13,50,8.30
2020,01,14,13,51,6.80
2020,01,14,13,52,4.60
2020,01,14,13,53,5.20
2020,01,14,13,54,6.30
2020,01,14,13,55,6.20
2020,01,14,13,56,6.20
2020,01,14,13,57,7.80
2020,01,14,13,58,6.90
2020,01,14,13,59,9.50
2020,01,14,14,00,11.00
2020,01,14,14,01,10.40
2020,01,14,14,02,7.00
2020,01,14,14,03,7.20
2020,01,14,14,04,6.50
2020,01,14,14,05,5.80
2020,01,14,14,06,7.20
2020,01,14,14,07,5.20
2020,01,14,14,08,5.60
2020,01,14,14,09,10.20
2020,01,14,14,10,9.10
2020,01,14,14,11,7.90
2020,01,14,14,12,11.60
2020,01,14,14,13,9.40
2020,01,14,14,14,10.00
2020,01,14,14,15,12.60
2020,01,14,14,16,11.20
2020,01,14,14,17,8.50
2020,01,14,14,18,9.20
2020,01,14,14,19,10.80
2020,01,14,14,20,8.60
2020,01,14,14,21,6.10
2020,01,14,14,22,9.70
2020,01,14,14,23,10.30
2020,01,14,14,24,11.70
2020,01,14,14,25,9.50
2020,01,14,14,26,12.10
2020,01,14,14,27,7.90
2020,01,14,14,28,10.90
2020,01,14,14,29,9.40
2020,01,14,14,30,12.60
2020,01,14,14,31,13.60
2020,01,14,14,32,12.30
2020,01,14,14,33,9.60
2020,01,14,14,34,9.20
2020,01,14,14,35,8.60
2020,01,14,14,36,12.30
2020,01,14,14,37,8.20
2020,01,14,14,38,9.80
2020,01,14,14,39,7.80
2020,01,14,14,40,6.80
2020,01,14,14,41,7.50
2020,01,14,14,42,8.00
2020,01,14,14,43,6.50
2020,01,14,14,44,9.60
2020,01,14,14,45,9.20
2020,01,14,14,46,11.90
2020,01,14,14,47,9.70
2020,01,14,14,48,7.10
2020,01,14,14,49,8.30
2020,01,14,14,50,8.20
2020,01,14,14,51,7.50
2020,01,14,14,52,7.30
2020,01,14,14,53,9.30
2020,01,14,14,54,8.20
2020,01,14,14,55,5.00
2020,01,14,14,56,8.50
2020,01,14,14,57,6.80
2020,01,14,14,58,6.10
2020,01,14,14,59,8.80
2020,01,14,15,00,10.30
2020,01,14,15,01,7.60
2020,01,14,15,02,8.50
2020,01,14,15,03,7.50
2020,01,14,15,04,7.10
2020,01,14,15,05,6.10
2020,01,14,15,06,8.00
2020,01,14,15,07,7.50
2020,01,14,15,08,7.30
2020,01,14,15,09,8.30
2020,01,14,15,10,6.80
2020,01,14,15,11,9.70
2020,01,14,15,12,9.50
2020,01,14,15,13,12.20
2020,01,14,15,14,8.70
2020,01,14,15,15,12.00
2020,01,14,15,16,8.10
2020,01,14,15,17,7.80
2020,01,14,15,18,6.70
2020,01,14,15,19,11.40
2020,01,14,15,20,9.70
2020,01,14,15,21,16.80
2020,01,14,15,22,11.30
2020,01,14,15,23,13.20
2020,01,14,15,24,10.60
2020,01,14,15,25,7.20
2020,01,14,15,26,6.80
2020,01,14,15,27,10.20
2020,01,14,15,28,9.80
2020,01,14,15,29,10.70
2020,01,14,15,30,6.00
2020,01,14,15,31,8.20
2020,01,14,15,32,5.90
2020,01,14,15,33,7.00
2020,01,14,15,34,3.60
2020,01,14,15,35,5.20
2020,01,14,15,36,6.20
2020,01,14,15,37,4.10
2020,01,14,15,38,6.80
2020,01,14,15,39,5.50
2020,01,14,15,40,6.80
2020,01,14,15,41,7.80
2020,01,14,15,42,4.80
2020,01,14,15,43,4.10
2020,01,14,15,44,8.90
2020,01,14,15,45,7.00
2020,01,14,15,46,6.70
2020,01,14,15,47,6.40
2020,01,14,15,48,7.30
2020,01,14,15,49,7.90
2020,01,14,15,50,4.90
2020,01,14,15,51,7.10
2020,01,14,15,52,5.70
2020,01,14,15,53,4.50
2020,01,14,15,54,4.30
2020,01,14,15,55,4.60
2020,01,14,15,56,4.50
2020,01,14,15,57,7.90
2020,01,14,15,58,7.00
2020,01,14,15,59,6.90
2020,01,14,16,00,8.50
2020,01,14,16,01,5.00
2020,01,14,16,02,6.40
2020,01,14,16,03,4.90
2020,01,14,16,04,4.80
2020,01,14,16,05,9.40
2020,01,14,16,06,8.40
2020,01,14,16,07,7.00
2020,01,14,16,08,6.80
2020,01,14,16,09,8.00
2020,01,14,16,10,10.10
2020,01,14,16,11,8.00
2020,01,14,16,12,7.80
2020,01,14,16,13,8.20
2020,01,14,16,14,10.20
2020,01,14,16,15,11.70
2020,01,14,16,16,7.90
2020,01,14,16,17,8.20
2020,01,14,16,18,6.20
2020,01,14,16,19,4.00
2020,01,14,16,20,3.30
2020,01,14,16,21,6.00
2020,01,14,16,22,7.60
2020,01,14,16,23,8.00
2020,01,14,16,24,6.70
2020,01,14,16,25,6.20
2020,01,14,16,26,6.20
2020,01,14,16,27,4.80
2020,01,14,16,28,7.70
2020,01,14,16,29,7.50
2020,01,14,16,30,6.00
2020,01,14,16,31,4.80
2020,01,14,16,32,3.80
2020,01,14,16,33,6.20
2020,01,14,16,34,6.00
2020,01,14,16,35,7.40
2020,01,14,16,36,5.50
2020,01,14,16,37,5.80
2020,01,14,16,38,3.00
2020,01,14,16,39,6.30
2020,01,14,16,40,5.20
2020,01,14,16,41,6.30
2020,01,14,16,42,4.90
2020,01,14,16,43,2.70
2020,01,14,16,44,2.50
2020,01,14,16,45,4.90
2020,01,14,16,46,8.20
2020,01,14,16,47,6.60
2020,01,14,16,48,6.30
2020,01,14,16,49,7.50
2020,01,14,16,50,7.10
2020,01,14,16,51,6.60
2020,01,14,16,52,7.10
2020,01,14,16,53,6.60
2020,01,14,16,54,7.30
2020,01,14,16,55,5.80
2020,01,14,16,56,10.10
2020,01,14,16,57,5.40
2020,01,14,16,58,8.70
2020,01,14,16,59,7.90
2020,01,14,17,00,5.30
2020,01,14,17,01,6.00
2020,01,14,17,02,6.80
2020,01,14,17,03,5.70
2020,01,14,17,04,3.70
2020,01,14,17,05,3.50
2020,01,14,17,06,6.90
2020,01,14,17,07,7.80
2020,01,14,17,08,6.20
2020,01,14,17,09,4.40
2020,01,14,17,10,4.40
2020,01,14,17,11,7.20
2020,01,14,17,12,7.20
2020,01,14,17,13,3.20
2020,01,14,17,14,3.40
2020,01,14,17,15,5.40
2020,01,14,17,16,5.10
2020,01,14,17,17,3.30
2020,01,14,17,18,4.90
2020,01,14,17,19,4.40
2020,01,14,17,20,6.20
2020,01,14,17,21,7.70
2020,01,14,17,22,6.40
2020,01,14,17,23,5.80
2020,01,14,17,24,5.00
2020,01,14,17,25,3.90
2020,01,14,17,26,4.80
2020,01,14,17,27,5.20
2020,01,14,17,28,6.60
2020,01,14,17,29,7.00
2020,01,14,17,30,5.60
2020,01,14,17,31,6.30
2020,01,14,17,32,7.20
2020,01,14,17,33,7.00
2020,01,14,17,34,7.00
2020,01,14,17,35,6.40
2020,01,14,17,36,5.50
2020,01,14,17,37,10.00
2020,01,14,17,38,6.60
2020,01,14,17,39,5.80
2020,01,14,17,40,5.50
2020,01,14,17,41,5.50
2020,01,14,17,42,8.40
2020,01,14,17,43,7.00
2020,01,14,17,44,7.00
2020,01,14,17,45,5.80
2020,01,14,17,46,6.20
2020,01,14,17,47,4.90
2020,01,14,17,48,7.10
2020,01,14,17,49,5.90
2020,01,14,17,50,4.40
2020,01,14,17,51,4.80
2020,01,14,17,52,4.50
2020,01,14,17,53,5.30
2020,01,14,17,54,8.10
2020,01,14,17,55,6.00
2020,01,14,17,56,5.10